Location: Newark
(49.3808°N, 3.1844°E)
Time: 05:28:27
(UTC+00:00)

Vanguard 1 Rocket - Pass Details

Date: 22 November 2019
Orbit: 650 x 4226 km, 34.3° (Epoch: 07 December)

Event Time Altitude Azimuth Distance (km) Brightness Sun altitude
Rises 03:05:20 0° 226° (SW) 3,140 - -38.9°
Reaches altitude 10° 03:09:20 10° 192° (SSW) 2,053 - -38.3°
Maximum altitude 03:10:55 12° 171° (S) 1,933 - -38.0°
Drops below altitude 10° 03:12:29 10° 149° (SSE) 2,065 - -37.8°
Exits shadow 03:14:00 - 133° (SE) 2,390 9.9 -37.5°
Sets 03:16:33 0° 116° (ESE) 3,187 10.8 -37.1°
